Regional Weather Roundup
Issued by NWS Goodland, KS

Home | Current Version | Previous Version | Graphics & Text | Print | Product List | Glossary On
Versions: 1 2 3 4 5 6 7 8 9 10 11 12 13 14 15 16 17 18 19 20 21 22 23 24 25 26 27 28 29 30 31 32 33 34 35 36 37 38 39 40 41 42 43 44 45 46 47 48 49 50
277
ASUS43 KGLD 161908
RWRGLD

GOODLAND FORECAST AREA HOURLY WEATHER ROUNDUP
NATIONAL WEATHER SERVICE GOODLAND KS
1200 PM MST SAT DEC 16 2017

...OFFICIAL OBSERVATIONS...

CITY           SKY/WX    TMP DP  RH WIND       PRES   REMARKS
GOODLAND KS    CLOUDY    54  16  22 NE22      29.75S
HILL CITY KS   SUNNY     54  17  23 E12       29.75F
IMPERIAL NEB   CLOUDY    49  26  41 NE23      29.80F
MCCOOK NEB     CLOUDY    55  22  27 NE18G30   29.78F
AKRON CO       CLOUDY    48  14  25 E14       29.80F
BURLINGTON CO  SUNNY     54  17  23 NE17G26   29.75F
LIMON CO       CLOUDY    50   7  17 N14G24    29.78F
$$

...UNOFFICIAL OBSERVATIONS...

CITY           SKY/WX    TMP DP  RH WIND       PRES   REMARKS
COLBY KS       CLOUDY    52  23  32 NE17      29.76S
LENORA KS        N/A     54  32  43 NE8         N/A
NORTON KS      SUNNY     55  16  21 NE14      29.75
SHARON SPRINGS   N/A     58  16  19 NE15G24     N/A
TRENTON NEB      N/A     51  32  48 NE12        N/A
KIT CARSON CO    N/A     56  14  19 MISG        N/A
YUMA CO        FAIR      45  18  33 NE16      29.79F
$$




USA.gov is the U.S. government's official web portal to all federal, state and local government web resources and services.